Location: Boone Canyon
(38.3180°N, 119.2504°W)
Time: 17:38:52
(UTC+00:00)

ERS-2 - Pass Details

Date: 18 September 2020
Orbit: 492 x 499 km, 98.6° (Epoch: 19 October)

Event Time Altitude Azimuth Distance (km) Brightness Sun altitude
Rises 12:20:00 0° 173° (S) 2,574 5.7 -16.6°
Reaches altitude 10° 12:22:05 10° 177° (S) 1,696 4.7 -16.2°
Maximum altitude 12:25:42 60° 258° (WSW) 573 2.1 -15.6°
Drops below altitude 10° 12:29:20 10° 339° (NNW) 1,709 4.8 -14.9°
Sets 12:31:26 0° 343° (NNW) 2,596 5.7 -14.5°
